Weather History for South Pass, WY

Change the Weather History Date:

Wednesday, September 11, 2013

  Actual Average (KLND) Record (KLND)
Temperature  
Mean Temperature 50 °F 61 °F  
Max Temperature 53 °F 75 °F 88 °F (1990)
Min Temperature 46 °F 46 °F 26 °F (1898)
Degree Days  
Heating Degree Days 16 5  
Month to date heating degree days 41  
Since 1 July heating degree days 81  
Cooling Degree Days 0 1  
Month to date cooling degree days 20  
Year to date cooling degree days 465  
Moisture  
Dew Point 44 °F    
Average Humidity 80    
Maximum Humidity 94    
Minimum Humidity 62    
Precipitation  
Precipitation 0.32 in 0.03 in 1.31 in (1903)
Month to date precipitation 0.28  
Year to date precipitation 9.16  
Snow  
Snow 0.00 in 0.10 in - ()
Month to date snowfall 0.4  
Since 1 July snowfall 0.4  
Since 1 September snowfall 0.4  
Snow Depth -    
Sea Level Pressure  
Sea Level Pressure 30.35 in    
Wind  
Wind Speed 18 mph (North)    
Max Wind Speed 30 mph    
Max Gust Speed 39 mph    
Visibility 9 miles    
Events Fog , Rain    
T = Trace of Precipitation, MM = Missing Value Source: NWS Daily Summary

Daily Weather History Graph

Daily Weather History Graph

Search for Another Location

Airport:

Trip Planner

Search our weather history database for the weather conditions in past years. The results will help you decide how hot, cold, wet, or windy it might be!

Date:

Astronomy

Sep. 11, 2013 Rise Set
Actual Time 6:51 AM MDT 7:31 PM MDT
Civil Twilight 6:22 AM MDT 7:59 PM MDT
Nautical Twilight 5:48 AM MDT 8:33 PM MDT
Astronomical Twilight 5:14 AM MDT 9:07 PM MDT
Moon 1:30 PM MDT (9/11) 11:22 PM MDT (9/11)
Length of Visible Light 13h 37m
Length of Day
12h 40m
Waxing Crescent, 39% of the Moon is Illuminated
Sep 11
Waxing Crescent
Sep 12
First Quarter
Sep 19
Full
Sep 26
Last Quarter
Oct 4
New

Hourly Weather History & Observations

Time (MDT) Temp. Windchill Dew Point Humidity Pressure Visibility Wind Dir Wind Speed Gust Speed Precip Events Conditions
12:15 AM 51.8 °F - 41.0 °F 67% 30.31 in 10.0 mi North 12.7 mph - N/A   Overcast
12:35 AM 51.8 °F - 41.0 °F 67% 30.31 in 10.0 mi North 15.0 mph - N/A   Overcast
12:55 AM 51.8 °F - 41.0 °F 67% 30.31 in 10.0 mi North 16.1 mph 21.9 mph N/A   Overcast
1:15 AM 51.8 °F - 42.8 °F 71% 30.31 in 10.0 mi North 16.1 mph 20.7 mph N/A Rain Light Rain
1:35 AM 51.8 °F - 42.8 °F 71% 30.31 in 10.0 mi North 15.0 mph - N/A   Overcast
1:55 AM 51.8 °F - 41.0 °F 67% 30.31 in 10.0 mi North 18.4 mph 23.0 mph N/A   Overcast
2:15 AM 51.8 °F - 41.0 °F 67% 30.30 in 10.0 mi North 18.4 mph 23.0 mph N/A   Overcast
2:35 AM 51.8 °F - 41.0 °F 67% 30.30 in 10.0 mi North 18.4 mph 26.5 mph N/A   Overcast
2:55 AM 51.8 °F - 41.0 °F 67% 30.30 in 10.0 mi North 19.6 mph 27.6 mph N/A   Overcast
3:15 AM 51.8 °F - 42.8 °F 71% 30.31 in 10.0 mi North 15.0 mph - N/A   Overcast
3:35 AM 51.8 °F - 42.8 °F 71% 30.32 in 10.0 mi North 12.7 mph 18.4 mph N/A   Overcast
3:55 AM 51.8 °F - 42.8 °F 71% 30.32 in 10.0 mi North 10.4 mph 20.7 mph N/A   Overcast
4:15 AM 50.0 °F - 42.8 °F 76% 30.32 in 10.0 mi North 13.8 mph 19.6 mph N/A   Overcast
4:35 AM 50.0 °F - 42.8 °F 76% 30.32 in 10.0 mi North 16.1 mph 19.6 mph N/A   Overcast
4:55 AM 50.0 °F - 42.8 °F 76% 30.31 in 10.0 mi North 15.0 mph 19.6 mph N/A   Overcast
5:15 AM 50.0 °F - 42.8 °F 76% 30.30 in 10.0 mi North 16.1 mph 21.9 mph N/A   Overcast
5:35 AM 50.0 °F - 42.8 °F 76% 30.30 in 10.0 mi North 19.6 mph - N/A   Mostly Cloudy
5:55 AM 50.0 °F - 42.8 °F 76% 30.31 in 10.0 mi North 17.3 mph - N/A   Overcast
6:15 AM 50.0 °F - 42.8 °F 76% 30.31 in 10.0 mi North 17.3 mph 23.0 mph N/A   Overcast
6:35 AM 50.0 °F - 42.8 °F 76% 30.32 in 10.0 mi North 16.1 mph 20.7 mph N/A   Overcast
6:55 AM 51.8 °F - 42.8 °F 71% 30.32 in 10.0 mi North 18.4 mph 23.0 mph N/A   Overcast
7:15 AM 51.8 °F - 41.0 °F 67% 30.31 in 10.0 mi North 21.9 mph 27.6 mph N/A   Overcast
7:35 AM 51.8 °F - 41.0 °F 67% 30.31 in 10.0 mi North 21.9 mph 29.9 mph N/A   Overcast
7:55 AM 51.8 °F - 41.0 °F 67% 30.32 in 10.0 mi North 20.7 mph 28.8 mph N/A   Overcast
8:15 AM 51.8 °F - 41.0 °F 67% 30.31 in 10.0 mi North 21.9 mph 27.6 mph N/A   Mostly Cloudy
8:35 AM 53.6 °F - 41.0 °F 62% 30.31 in 10.0 mi North 25.3 mph 34.5 mph N/A   Scattered Clouds
8:55 AM 53.6 °F - 41.0 °F 62% 30.32 in 10.0 mi North 26.5 mph 31.1 mph N/A   Mostly Cloudy
9:15 AM 53.6 °F - 41.0 °F 62% 30.33 in 10.0 mi North 18.4 mph 29.9 mph N/A   Overcast
9:35 AM 53.6 °F - 41.0 °F 62% 30.33 in 10.0 mi North 23.0 mph 28.8 mph N/A   Overcast
9:55 AM 53.6 °F - 41.0 °F 62% 30.32 in 10.0 mi North 27.6 mph 35.7 mph N/A   Overcast
10:15 AM 53.6 °F - 41.0 °F 62% 30.33 in 10.0 mi North 27.6 mph 36.8 mph N/A   Overcast
10:35 AM 53.6 °F - 41.0 °F 62% 30.33 in 10.0 mi North 29.9 mph 39.1 mph N/A   Overcast
10:55 AM 50.0 °F - 42.8 °F 76% 30.34 in 10.0 mi North 20.7 mph 36.8 mph N/A   Overcast
11:15 AM 50.0 °F - 42.8 °F 76% 30.34 in 10.0 mi North 25.3 mph 32.2 mph N/A   Overcast
11:35 AM 50.0 °F - 42.8 °F 76% 30.36 in 10.0 mi North 21.9 mph 31.1 mph N/A   Overcast
11:55 AM 50.0 °F - 44.6 °F 82% 30.38 in 10.0 mi North 15.0 mph - N/A Rain Light Rain
12:15 PM 46.4 °F 38.7 °F 44.6 °F 93% 30.37 in 3.0 mi North 20.7 mph 28.8 mph 0.02 in Rain Light Rain
12:35 PM 46.4 °F 39.0 °F 44.6 °F 93% 30.36 in 7.0 mi North 19.6 mph 27.6 mph 0.04 in Rain Light Rain
12:55 PM 48.2 °F - 44.6 °F 87% 30.38 in 10.0 mi North 12.7 mph 29.9 mph 0.05 in Rain Light Rain
1:15 PM 48.2 °F - 46.4 °F 93% 30.36 in 5.0 mi NNW 21.9 mph 27.6 mph 0.02 in Rain Rain
1:35 PM 50.0 °F - 46.4 °F 87% 30.36 in 10.0 mi North 23.0 mph 28.8 mph 0.03 in   Overcast
1:55 PM 50.0 °F - 46.4 °F 87% 30.36 in 7.0 mi North 19.6 mph 29.9 mph 0.03 in Rain Light Rain
2:15 PM 50.0 °F - 46.4 °F 87% 30.37 in 10.0 mi North 18.4 mph 25.3 mph N/A Rain Light Rain
2:35 PM 48.2 °F - 46.4 °F 93% 30.36 in 3.0 mi NNW 21.9 mph 29.9 mph 0.02 in Rain Rain
2:55 PM 50.0 °F - 46.4 °F 87% 30.36 in 7.0 mi North 20.7 mph 26.5 mph 0.04 in Rain Light Rain
3:15 PM 50.0 °F - 46.4 °F 87% 30.36 in 4.0 mi North 19.6 mph 31.1 mph 0.02 in Rain Rain
3:35 PM 50.0 °F - 46.4 °F 87% 30.37 in 10.0 mi NNW 23.0 mph 27.6 mph 0.02 in Rain Light Rain
3:55 PM 50.0 °F - 46.4 °F 87% 30.37 in 10.0 mi North 19.6 mph 23.0 mph 0.03 in Rain Light Rain
4:15 PM 50.0 °F - 48.2 °F 94% 30.37 in 5.0 mi North 20.7 mph 31.1 mph 0.01 in Rain Rain
4:35 PM 50.0 °F - 46.4 °F 87% 30.36 in 3.0 mi North 24.2 mph 33.4 mph 0.05 in Rain Rain
4:55 PM 48.2 °F - 46.4 °F 93% 30.38 in 7.0 mi North 18.4 mph 27.6 mph 0.06 in Rain Light Rain
5:15 PM 48.2 °F - 46.4 °F 93% 30.37 in 10.0 mi North 21.9 mph 31.1 mph N/A   Overcast
5:35 PM 48.2 °F - 46.4 °F 93% 30.36 in 7.0 mi North 27.6 mph 33.4 mph 0.01 in Rain Light Rain
5:55 PM 48.2 °F - 46.4 °F 93% 30.37 in 5.0 mi North 19.6 mph 33.4 mph 0.02 in Rain Light Rain
6:15 PM 48.2 °F - 46.4 °F 93% 30.38 in 7.0 mi North 18.4 mph 24.2 mph 0.02 in Rain Light Rain
6:35 PM 48.2 °F - 46.4 °F 93% 30.38 in 5.0 mi North 16.1 mph 26.5 mph 0.05 in Rain Rain
6:55 PM 48.2 °F - 46.4 °F 93% 30.37 in 7.0 mi North 17.3 mph 23.0 mph 0.08 in Rain Light Rain
7:15 PM 48.2 °F - 46.4 °F 93% 30.38 in 10.0 mi North 15.0 mph 20.7 mph 0.01 in   Overcast
7:35 PM 48.2 °F - 46.4 °F 93% 30.38 in 0.2 mi North 16.1 mph 24.2 mph 0.01 in Fog Fog
7:55 PM 48.2 °F - 46.4 °F 93% 30.38 in 10.0 mi NNE 13.8 mph 23.0 mph 0.01 in   Unknown
8:15 PM 48.2 °F - 46.4 °F 93% 30.38 in 10.0 mi North 15.0 mph 25.3 mph N/A   Overcast
8:35 PM 48.2 °F - 44.6 °F 87% 30.40 in 10.0 mi NNE 15.0 mph 21.9 mph N/A   Overcast
8:55 PM 48.2 °F - 44.6 °F 87% 30.40 in 10.0 mi NNE 13.8 mph 25.3 mph N/A   Overcast
9:15 PM 48.2 °F - 44.6 °F 87% 30.40 in 10.0 mi NNE 12.7 mph - N/A   Overcast
9:35 PM 48.2 °F - 44.6 °F 87% 30.40 in 10.0 mi North 15.0 mph 21.9 mph N/A Rain Light Rain
9:55 PM 48.2 °F - 44.6 °F 87% 30.40 in 10.0 mi North 12.7 mph 20.7 mph N/A   Overcast
10:15 PM 48.2 °F - 44.6 °F 87% 30.40 in 10.0 mi North 12.7 mph 20.7 mph N/A   Overcast
10:35 PM 48.2 °F - 44.6 °F 87% 30.40 in 10.0 mi North 15.0 mph 19.6 mph N/A   Overcast
10:55 PM 48.2 °F - 44.6 °F 87% 30.40 in 10.0 mi North 13.8 mph 21.9 mph N/A   Overcast
11:15 PM 50.0 °F - 44.6 °F 82% 30.40 in 10.0 mi North 15.0 mph 23.0 mph N/A   Overcast
11:55 PM 50.0 °F - 44.6 °F 82% 30.40 in 10.0 mi NNE 12.7 mph 25.3 mph N/A   Overcast